Preview of NWS' New Version of Forecast
This preview is not operational and should not be used for support decisions.

Regional Weather Roundup (RWR)

Issued by National Weather Service (NWS)

                            
000
ASUS43 KMKX 190110
RWRWI 

WISCONSIN REGIONAL WEATHER ROUNDUP
NATIONAL WEATHER SERVICE MILWAUKEE/SULLIVAN WI
800 PM CDT THU APR 18 2019

NOTE: "FAIR" INDICATES FEW OR NO CLOUDS BELOW 12,000 FEET WITH NO
SIGNIFICANT WEATHER AND/OR OBSTRUCTIONS TO VISIBILITY.

WIZ001-002-006>008-014>016-023>028-190200-
NORTHWEST WISCONSIN
  
CITY           SKY/WX    TMP DP  RH WIND       PRES   REMARKS
SUPERIOR ARPT  MOCLDY    42  37  83 CALM      29.94R                  
ASHLAND        FAIR      42  38  85 E5        29.94R                  
HAYWARD        MOCLDY    46  38  73 VRB7      29.92R                  
SIREN          FAIR      46  36  68 NW3       29.95R                  
CUMBERLAND     FAIR      41  34  75 NW8       29.92S                  
RICE LAKE      FAIR      46  38  76 N6        29.93R                  
CHETEK         FAIR      42  37  82 N3        29.92R                  
LADYSMITH      MOCLDY    44  39  83 N6        29.93R                  
EAU CLAIRE     FAIR      46  36  68 N7        29.91R                  
MENOMONIE      FAIR      43  33  68 N10       29.92R                  
NEW RICHMOND   FAIR      45  35  67 N7        29.94R                  
OSCEOLA        FAIR      48  38  69 N5        29.96R                  
$$
 
WIZ003>005-009-010-017-018-190200-
NORTH CENTRAL WISCONSIN
  
CITY           SKY/WX    TMP DP  RH WIND       PRES   REMARKS
MANITOWISH WTR CLOUDY    38  38 100 N5        29.89R WCI  34          
ARBOR VITAE    CLOUDY    39  37  92 N6        29.88R WCI  35          
WOODRUFF       CLOUDY    39  37  92 N6        29.88R WCI  35          
RHINELANDER    CLOUDY    40  35  83 N5        29.87R                  
EAGLE RIVER    CLOUDY    38  36  91 N8        29.86R WCI  33          
LAND O LAKES   CLOUDY    39  36  88 N10       29.88R WCI  32          
PHILLIPS       CLOUDY    40  38  95 N6        29.90R                  
TOMAHAWK       CLOUDY    38  35  88 N5        29.89R WCI  35          
MEDFORD        CLOUDY    39  36  91 N8        29.88R WCI  33          
MERRILL        CLOUDY    40  37  89 N7        29.87R                  
$$
 
WIZ029-030-035-036-043>047-190200-
CENTRAL WISCONSIN
  
CITY           SKY/WX    TMP DP  RH WIND       PRES   REMARKS
WAUSAU         LGT RAIN  40  35  83 N7        29.85R                  
MOSINEE        CLOUDY    39  36  87 N9        29.87R WCI  33          
MARSHFIELD     CLOUDY    40  38  93 N7        29.87R                  
STEVENS POINT  CLOUDY    39  34  83 N7G16     29.86R WCI  34          
WAUPACA        CLOUDY    45  37  73 NW8       29.84R                  
WAUTOMA        NOT AVBL                                               
WISC RAPIDS    CLOUDY    42  33  70 N10       29.87R                  
CAMP DOUGLAS   CLOUDY    43  41  95 N10       29.87R                  
$$
 
WIZ011>013-019>022-031-037>040-048>050-190200-
NORTHEAST WISCONSIN
  
CITY           SKY/WX    TMP DP  RH WIND       PRES   REMARKS
ANTIGO         CLOUDY    38  36  94 NW9       29.85R WCI  31          
SHAWANO        DRIZZLE   44  37  77 N8        29.84R                  
OCONTO         CLOUDY    41  38  87 NW7       29.81R                  
STURGEON BAY   CLOUDY    40  38  93 NW14      29.79R WCI  32          
GREEN BAY      CLOUDY    43  38  82 NW10      29.81R                  
MANITOWOC      CLOUDY    42  38  85 NW15      29.79R                  
APPLETON       NOT AVBL                                               
CLINTONVILLE   DRIZZLE   43  36  76 N7        29.84R                  
OSHKOSH        CLOUDY    43  37  79 N13       29.81R                  
$$
 
WIZ032>034-041-042-053>061-190200-
SOUTHWEST WISCONSIN
  
CITY           SKY/WX    TMP DP  RH WIND       PRES   REMARKS
LA CROSSE      CLOUDY    49  35  58 N9        29.89R                  
SPARTA         CLOUDY    43  37  79 N5        29.90R                  
VIROQUA        CLOUDY    43  38  83 N17       29.88R                  
BOSCOBEL       CLOUDY    48  35  60 N13G22    29.87R                  
PRAIRIE DU CHI MOCLDY    47  34  60 N7        29.87R                  
PLATTEVILLE    CLOUDY    45  39  78 N10       29.85R                  
$$

WIZ056-057-062-063-064-067-068-190200-
SOUTH CENTRAL WISCONSIN
  
CITY           SKY/WX    TMP DP  RH WIND       PRES   REMARKS
REEDSBURG      CLOUDY    43  36  76 N13       29.85R                  
BARABOO/DELLS  CLOUDY    42  35  74 N12G20    29.84R                  
LONE ROCK      CLOUDY    46  35  65 N13G23    29.85R                  
MINERAL POINT  CLOUDY    45  37  76 N15       29.84R                  
MADISON        CLOUDY    43  36  76 N13       29.81R                  
MIDDLETON      CLOUDY    45  37  76 N15G22    29.83R                  
WATERTOWN      CLOUDY    43  39  87 N10       29.80R                  
MONROE         CLOUDY    43  36  77 MISG      29.81R                  
JANESVILLE     CLOUDY    46  37  71 N14G23    29.80R                  
$$
 
WIZ051-052-058>065-066-070>072-190200-
SOUTHEAST WISCONSIN
  
CITY           SKY/WX    TMP DP  RH WIND       PRES   REMARKS
MILWAUKEE      CLOUDY    45  37  73 N13       29.78R                  
WAUKESHA       CLOUDY    41  37  87 NW8       29.80R                  
MILWAUKEE/TIMM CLOUDY    43  36  75 N16       29.79R                  
RACINE         CLOUDY    45  37  73 NW7       29.79R                  
KENOSHA          N/A     44  40  85 NW10      29.78R                  
FOND DU LAC    CLOUDY    43  37  79 N15G26    29.81R                  
SHEBOYGAN      CLOUDY    43  38  82 N13       29.78R                  
WEST BEND      CLOUDY    41  39  93 N8        29.80R                  
JUNEAU         CLOUDY    42  38  87 NW7G16    29.81R                  
$$

LSZ147-162-190200-
LAKE SUPERIOR
  
STATION/POSITION TIME  TEMP    WIND        PRES    WAVE
                       AIR SEA DIR/SP/G            HT/PER
                 (UTC) (F)     (DEG/KT/KT) (MB)    (FT/S)
$$
 
LMZ867-665-643>646-190200-
LAKE MICHIGAN
  
STATION/POSITION TIME  TEMP    WIND        PRES    WAVE
                       AIR SEA DIR/SP/G            HT/PER
                 (UTC) (F)     (DEG/KT/KT) (MB)    (FT/S)
NORTHPORT PIER   0040   37     310/  8/  9 1007.8R
KEWAUNEE LAKESHO 0036   42     330/ 10/ 13 1007.6R
SHEBOYGAN LAKESH 0100   43     340/ 15/ 17 1008.5R
MILWAUKEE LAKESH 0050   45                   N/A
KENOSHA   LAKESH 0100   45     320/  7/ 11 1008.5
$$

TC  - TEMPERATURE IN CELSIUS
VSB - VISIBILITY IN STATUTE MILES
WCI - WIND CHILL INDEX
HX  - HEAT INDEX